N5CSU Weather Reports


time (UTC)temp
C
wind
direction
speed
KPH
gust
KPH
rain 1hr
cm
rain 24hr
cm
rain mn
cm
humidity
%
barometer
mb
20260510131215 20 179 0.0 0.0 0.00 0.00 0.00 82 1014.9
20260510130711 20 191 0.0 0.0 0.00 0.00 0.00 83 1015.0
20260510130209 20 179 0.0 0.0 0.00 0.00 0.00 83 1015.0
20260510125704 20 191 0.0 0.0 0.00 0.00 0.00 83 1015.0
20260510125201 19 178 0.0 0.0 0.00 0.00 0.00 83 1015.1
20260510124657 19 218 0.0 0.0 0.00 0.00 0.00 84 1014.8
20260510124155 19 178 0.0 0.0 0.00 0.00 0.00 85 1014.9
20260510123650 19 199 0.0 0.0 0.00 0.00 0.00 85 1014.8
20260510123146 19 191 0.0 0.0 0.00 0.00 0.00 85 1014.9
20260510122642 19 195 0.0 0.0 0.00 0.00 0.00 85 1015.0
20260510122138 19 182 0.0 0.0 0.00 0.00 0.00 85 1014.9
20260510121635 19 179 0.0 1.6 0.00 0.00 0.00 85 1014.6
20260510121133 19 198 0.0 0.0 0.00 0.00 0.00 86 1014.5
20260510120631 19 197 0.0 0.0 0.00 0.00 0.00 86 1014.4
20260510120126 19 173 0.0 0.0 0.00 0.00 0.00 86 1014.5
20260510115622 19 190 0.0 0.0 0.00 0.00 0.00 86 1014.6
20260510115120 19 192 0.0 1.6 0.00 0.00 0.00 85 1014.3
20260510114615 19 186 0.0 0.0 0.00 0.00 0.00 86 1014.2
20260510114112 19 187 0.0 0.0 0.00 0.00 0.00 85 1014.6
20260510113607 19 39 0.0 0.0 0.00 0.00 0.00 84 1014.5
20260510113105 19 175 0.0 0.0 0.00 0.00 0.00 84 1014.4
20260510112601 19 187 0.0 0.0 0.00 0.00 0.00 84 1014.2
20260510112057 19 184 0.0 0.0 0.00 0.00 0.00 84 1014.1
20260510111554 19 188 0.0 0.0 0.00 0.00 0.00 83 1014.1
20260510111050 19 185 0.0 0.0 0.00 0.00 0.00 83 1014.0
20260510110546 19 187 0.0 0.0 0.00 0.00 0.00 83 1014.1
20260510110043 19 65 0.0 0.0 0.00 0.00 0.00 83 1014.2
20260510105538 19 183 1.6 1.6 0.00 0.00 0.00 83 1014.0
20260510105033 19 198 0.0 0.0 0.00 0.00 0.00 83 1013.8
20260510104530 19 182 0.0 0.0 0.00 0.00 0.00 83 1013.6
20260510104026 20 185 0.0 1.6 0.00 0.00 0.00 83 1013.9
20260510103524 20 29 1.6 3.2 0.00 0.00 0.00 83 1013.7
20260510103020 20 177 0.0 1.6 0.00 0.00 0.00 83 1013.9
20260510102516 20 176 1.6 1.6 0.00 0.00 0.00 82 1014.2
20260510102012 20 170 1.6 3.2 0.00 0.00 0.00 81 1014.4
20260510101509 20 182 0.0 0.0 0.00 0.00 0.00 80 1014.1
20260510101008 20 173 0.0 0.0 0.00 0.00 0.00 80 1013.7
20260510100504 21 137 1.6 3.2 0.00 0.00 0.00 78 1013.5
20260510100001 21 35 1.6 3.2 0.00 0.00 0.00 78 1013.9
20260510095456 21 197 0.0 1.6 0.00 0.00 0.00 77 1013.9
20260510094955 21 46 1.6 3.2 0.00 0.00 0.00 76 1014.2
20260510094450 22 188 0.0 1.6 0.00 0.00 0.00 76 1014.3
20260510093947 22 192 0.0 0.0 0.00 0.00 0.00 78 1014.3
20260510093442 23 304 1.6 3.2 0.00 0.00 0.00 83 1014.2
20260510092939 23 158 1.6 1.6 0.00 0.00 0.00 90 1013.8
20260510092437 23 146 0.0 1.6 0.00 0.00 0.00 90 1013.7
20260510091936 23 50 1.6 3.2 0.00 0.00 0.00 90 1013.2
20260510091433 23 146 0.0 0.0 0.00 0.00 0.00 90 1013.2
20260510090930 23 175 0.0 0.0 0.00 0.00 0.00 89 1013.1
20260510090426 23 170 0.0 0.0 0.00 0.00 0.00 89 1012.8
20260510085922 23 28 0.0 0.0 0.00 0.00 0.00 89 1012.5
20260510085418 22 177 0.0 0.0 0.00 0.00 0.00 89 1012.2
20260510084913 22 181 0.0 0.0 0.00 0.00 0.00 89 1011.9
20260510084411 22 180 0.0 0.0 0.00 0.00 0.00 89 1012.1
20260510083907 22 174 0.0 0.0 0.00 0.00 0.00 89 1012.2
20260510083403 22 170 0.0 0.0 0.00 0.00 0.00 89 1012.1
20260510082859 22 170 0.0 0.0 0.00 0.00 0.00 89 1012.1
20260510082357 22 170 0.0 0.0 0.00 0.00 0.00 89 1012.1
20260510081855 22 170 0.0 0.0 0.00 0.00 0.00 89 1011.6
20260510081351 22 170 0.0 0.0 0.00 0.00 0.00 88 1011.4
20260510080849 22 170 0.0 0.0 0.00 0.00 0.00 88 1011.1
20260510080342 22 170 0.0 0.0 0.00 0.00 0.00 87 1011.3
20260510075839 22 170 0.0 0.0 0.00 0.00 0.00 87 1011.1
20260510075337 22 170 0.0 0.0 0.00 0.00 0.00 87 1011.1
20260510074828 22 170 0.0 0.0 0.00 0.00 0.00 86 1011.0
20260510074326 22 170 0.0 0.0 0.00 0.00 0.00 86 1010.9
20260510073821 22 170 0.0 0.0 0.00 0.00 0.00 85 1010.7
20260510073312 22 170 0.0 0.0 0.00 0.00 0.00 85 1010.7
20260510072808 23 170 0.0 0.0 0.00 0.00 0.00 85 1010.5
20260510072306 23 170 0.0 0.0 0.00 0.00 0.00 84 1010.8
20260510071801 23 169 0.0 0.0 0.00 0.00 0.00 84 1011.0
20260510071257 23 167 0.0 0.0 0.00 0.00 0.00 84 1011.1
20260510070756 23 173 0.0 0.0 0.00 0.00 0.00 83 1011.0
20260510070252 23 182 0.0 0.0 0.00 0.00 0.00 83 1011.2
20260510065746 23 182 0.0 0.0 0.00 0.00 0.00 83 1011.5
20260510065243 23 116 0.0 0.0 0.00 0.00 0.00 83 1011.6
20260510064739 23 172 0.0 0.0 0.00 0.00 0.00 83 1011.5
20260510064238 23 160 0.0 0.0 0.00 0.00 0.00 82 1011.3
20260510063733 23 166 0.0 0.0 0.00 0.00 0.00 82 1011.5
20260510063230 23 166 0.0 0.0 0.00 0.00 0.00 81 1011.7
20260510062727 23 153 0.0 0.0 0.00 0.00 0.00 80 1011.7
20260510062223 23 150 0.0 0.0 0.00 0.00 0.00 80 1011.0
20260510061718 24 180 0.0 0.0 0.00 0.00 0.00 79 1010.7
20260510061216 24 189 0.0 0.0 0.00 0.00 0.00 79 1010.2
20260510060712 24 185 0.0 0.0 0.00 0.00 0.00 79 1010.2
20260510060208 24 96 0.0 0.0 0.00 0.00 0.00 79 1009.9
20260510055705 23 99 0.0 0.0 0.00 0.00 0.00 79 1009.7
20260510055203 23 161 0.0 0.0 0.00 0.00 0.00 78 1009.7
20260510054658 23 164 0.0 0.0 0.00 0.00 0.00 78 1009.9
20260510054154 23 189 0.0 0.0 0.00 0.00 0.00 78 1009.8
20260510053653 24 171 0.0 0.0 0.00 0.00 0.00 78 1009.9
20260510053151 24 171 0.0 0.0 0.00 0.00 0.00 78 1009.9
20260510052646 24 174 1.6 1.6 0.00 0.00 0.00 78 1009.8
20260510052142 24 181 0.0 0.0 0.00 0.00 0.00 77 1009.7
20260510051638 24 194 0.0 0.0 0.00 0.00 0.00 77 1009.7
20260510051135 24 180 0.0 0.0 0.00 0.00 0.00 77 1009.5
20260510050632 24 182 0.0 0.0 0.00 0.00 0.00 76 1009.6
20260510050130 24 184 1.6 1.6 0.00 0.00 0.00 76 1009.4
20260510045626 25 181 0.0 0.0 0.00 0.00 0.00 75 1009.3
20260510045122 25 180 0.0 0.0 0.00 0.00 0.00 74 1009.2
20260510044619 25 186 0.0 0.0 0.00 0.00 0.00 73 1009.3
20260510044116 25 207 0.0 1.6 0.00 0.00 0.00 72 1009.1
20260510043612 24 194 0.0 0.0 0.00 0.00 0.00 71 1009.2
20260510043108 24 183 0.0 0.0 0.00 0.00 0.00 71 1009.5
20260510042607 24 175 0.0 0.0 0.00 0.00 0.00 71 1009.2
20260510042102 24 177 0.0 0.0 0.00 0.00 0.00 72 1009.3
20260510041600 24 178 0.0 0.0 0.00 0.00 0.00 70 1009.3
20260510041057 24 180 0.0 0.0 0.00 0.00 0.00 71 1009.7
20260510040554 24 181 0.0 0.0 0.00 0.00 0.00 71 1009.4
20260510040049 25 191 0.0 0.0 0.00 0.00 0.00 71 1009.4
20260510035546 24 190 0.0 0.0 0.00 0.00 0.00 71 1009.5
20260510035045 24 184 0.0 0.0 0.00 0.00 0.00 72 1009.6
20260510034544 25 184 0.0 0.0 0.00 0.00 0.00 72 1009.5
20260510034041 25 184 0.0 0.0 0.00 0.00 0.00 71 1009.4
20260510033536 25 184 0.0 0.0 0.00 0.00 0.00 71 1009.6
20260510033035 25 190 0.0 0.0 0.00 0.00 0.00 70 1009.5
20260510032531 25 190 0.0 0.0 0.00 0.00 0.00 70 1009.5
20260510032026 25 191 0.0 0.0 0.00 0.00 0.00 69 1009.7
20260510031521 25 191 0.0 0.0 0.00 0.00 0.00 68 1009.6
20260510031017 25 179 0.0 0.0 0.00 0.00 0.00 68 1009.7
20260510030513 25 183 0.0 0.0 0.00 0.00 0.00 68 1009.6
20260510030011 25 179 0.0 0.0 0.00 0.00 0.00 67 1009.8
20260510025508 25 184 0.0 0.0 0.00 0.00 0.00 67 1009.6
20260510025005 25 188 0.0 0.0 0.00 0.00 0.00 67 1009.4
20260510024502 25 185 0.0 0.0 0.00 0.00 0.00 68 1009.5
20260510023958 25 182 0.0 0.0 0.00 0.00 0.00 68 1009.3
20260510023454 25 184 0.0 0.0 0.00 0.00 0.00 68 1009.3
20260510022951 25 185 0.0 0.0 0.00 0.00 0.00 68 1009.4
20260510022450 25 179 0.0 0.0 0.00 0.00 0.00 69 1009.3
20260510021949 25 177 0.0 0.0 0.00 0.00 0.00 69 1009.1
20260510021448 25 179 0.0 0.0 0.00 0.00 0.00 70 1009.1
20260510020944 24 186 0.0 0.0 0.00 0.00 0.00 69 1009.0
20260510020438 24 172 0.0 0.0 0.00 0.00 0.00 69 1009.1
20260510015935 24 172 0.0 0.0 0.00 0.00 0.00 69 1009.2
20260510015431 25 172 0.0 0.0 0.00 0.00 0.00 69 1008.9
20260510014926 25 172 0.0 0.0 0.00 0.00 0.00 68 1008.9
20260510014424 25 172 0.0 0.0 0.00 0.00 0.00 66 1008.7
20260510013920 25 172 0.0 0.0 0.00 0.00 0.00 65 1008.7
20260510013414 25 172 0.0 0.0 0.00 0.00 0.00 65 1008.8
20260510012910 25 172 0.0 0.0 0.00 0.00 0.00 65 1008.7
20260510012406 25 172 0.0 0.0 0.00 0.00 0.00 64 1008.7
20260510011900 26 172 0.0 0.0 0.00 0.00 0.00 63 1008.4
20260510011356 26 172 0.0 0.0 0.00 0.00 0.00 63 1008.4
20260510010852 26 172 0.0 0.0 0.00 0.00 0.00 62 1008.2
20260510010349 26 172 0.0 0.0 0.00 0.00 0.00 62 1008.1
20260510005846 26 171 0.0 0.0 0.00 0.00 0.00 61 1008.2
20260510005342 27 169 0.0 0.0 0.00 0.00 0.00 60 1007.9
20260510004840 27 169 0.0 0.0 0.00 0.00 0.00 61 1008.2
20260510004337 27 169 0.0 0.0 0.00 0.00 0.00 59 1008.3
20260510003835 27 169 0.0 0.0 0.00 0.00 0.00 58 1008.2
20260510003332 28 142 0.0 0.0 0.00 0.00 0.00 57 1008.1
20260510002830 28 134 0.0 0.0 0.00 0.00 0.00 54 1008.2
20260510002328 28 160 0.0 0.0 0.00 0.00 0.00 54 1008.0
20260510001824 28 164 0.0 0.0 0.00 0.00 0.00 55 1008.2
20260510001323 28 154 0.0 0.0 0.00 0.00 0.00 54 1008.1
20260510000818 28 171 0.0 0.0 0.00 0.00 0.00 55 1008.2
20260510000318 28 166 0.0 0.0 0.00 0.00 0.00 54 1008.2
20260509235813 28 173 0.0 0.0 0.00 0.00 0.00 54 1008.0
20260509235309 29 180 0.0 0.0 0.00 0.00 0.00 54 1008.2
20260509234805 29 181 0.0 0.0 0.00 0.00 0.00 53 1008.2
20260509234302 29 177 0.0 0.0 0.00 0.00 0.00 52 1008.0
20260509233800 29 190 0.0 0.0 0.00 0.00 0.00 53 1008.0
20260509233257 29 189 0.0 0.0 0.00 0.00 0.00 53 1008.0
20260509232753 29 256 0.0 0.0 0.00 0.00 0.00 54 1008.0
20260509232251 29 148 0.0 0.0 0.00 0.00 0.00 52 1008.1
20260509231747 29 207 0.0 0.0 0.00 0.00 0.00 52 1008.1
20260509231244 29 168 0.0 0.0 0.00 0.00 0.00 54 1008.0
20260509230741 29 3 0.0 1.6 0.00 0.00 0.00 53 1008.2
20260509230238 30 181 0.0 0.0 0.00 0.00 0.00 53 1008.1
20260509225733 29 176 0.0 0.0 0.00 0.00 0.00 52 1007.9
20260509225230 30 169 0.0 0.0 0.00 0.00 0.00 54 1008.1
20260509224725 30 148 0.0 0.0 0.00 0.00 0.00 53 1008.2
20260509224223 30 187 0.0 0.0 0.00 0.00 0.00 54 1008.2
20260509223719 30 95 0.0 0.0 0.00 0.00 0.00 52 1008.0
20260509223217 30 200 0.0 0.0 0.00 0.00 0.00 53 1008.0
20260509222713 30 201 0.0 0.0 0.00 0.00 0.00 54 1008.0
20260509222209 30 181 0.0 1.6 0.00 0.00 0.00 52 1008.1
20260509221705 30 167 0.0 0.0 0.00 0.00 0.00 53 1007.8
20260509221201 30 158 0.0 0.0 0.00 0.00 0.00 56 1007.8
20260509220658 30 176 0.0 0.0 0.00 0.00 0.00 54 1008.0
20260509220154 30 185 1.6 3.2 0.00 0.00 0.00 53 1008.0
20260509215650 30 321 0.0 1.6 0.00 0.00 0.00 54 1008.0
20260509215147 30 184 0.0 1.6 0.00 0.00 0.00 55 1008.1
20260509214644 30 188 0.0 0.0 0.00 0.00 0.00 54 1008.1
20260509214141 30 84 1.6 1.6 0.00 0.00 0.00 54 1008.2
20260509213638 30 117 0.0 0.0 0.00 0.00 0.00 55 1008.3
20260509213133 30 176 0.0 0.0 0.00 0.00 0.00 56 1008.3
20260509212631 30 93 3.2 3.2 0.00 0.00 0.00 57 1008.3
20260509212128 30 186 0.0 0.0 0.00 0.00 0.00 61 1008.5
20260509211624 30 174 1.6 3.2 0.00 0.00 0.00 61 1008.7
20260509211120 30 174 0.0 0.0 0.00 0.00 0.00 58 1008.7
20260509210617 30 171 0.0 0.0 0.00 0.00 0.00 62 1008.5
20260509210114 30 185 0.0 0.0 0.00 0.00 0.00 62 1008.7
20260509205614 30 191 0.0 0.0 0.00 0.00 0.00 60 1008.7
20260509205104 30 201 0.0 0.0 0.00 0.00 0.00 61 1008.9
20260509204600 30 229 0.0 0.0 0.00 0.00 0.00 64 1009.1
20260509204057 30 185 0.0 0.0 0.00 0.00 0.00 63 1009.1
20260509203552 30 26 1.6 1.6 0.00 0.00 0.00 61 1009.3
20260509203051 30 170 0.0 0.0 0.00 0.00 0.00 64 1009.2
20260509202545 29 198 0.0 0.0 0.00 0.00 0.00 66 1009.4
20260509202040 29 176 1.6 1.6 0.00 0.00 0.00 66 1009.4
20260509201535 30 180 0.0 1.6 0.00 0.00 0.00 64 1009.3
20260509201034 29 97 1.6 3.2 0.00 0.00 0.00 62 1009.4
20260509200527 29 190 0.0 0.0 0.00 0.00 0.00 60 1009.4
20260509200024 29 184 0.0 0.0 0.00 0.00 0.00 62 1009.4
20260509195519 30 36 1.6 1.6 0.00 0.00 0.00 59 1009.5
20260509195014 30 199 3.2 3.2 0.00 0.00 0.00 60 1009.4
20260509194509 30 189 0.0 0.0 0.00 0.00 0.00 60 1009.5
20260509194006 30 197 0.0 0.0 0.00 0.00 0.00 61 1009.6
20260509193501 30 56 0.0 1.6 0.00 0.00 0.00 60 1009.6
20260509192957 30 138 0.0 1.6 0.00 0.00 0.00 61 1009.5
20260509192454 30 172 0.0 0.0 0.00 0.00 0.00 63 1009.7
20260509191949 29 182 0.0 0.0 0.00 0.00 0.00 61 1009.6
20260509191444 29 188 0.0 0.0 0.00 0.00 0.00 64 1009.7
20260509190940 29 225 0.0 0.0 0.00 0.00 0.00 64 1009.9
20260509190438 30 192 0.0 0.0 0.00 0.00 0.00 63 1009.8
20260509185936 29 184 0.0 0.0 0.00 0.00 0.00 64 1010.0
20260509185433 29 182 0.0 0.0 0.00 0.00 0.00 65 1009.9
20260509184929 28 199 0.0 0.0 0.00 0.00 0.00 65 1009.9
20260509184427 28 182 0.0 0.0 0.00 0.00 0.00 64 1010.0
20260509183923 28 212 0.0 1.6 0.00 0.00 0.00 65 1009.9
20260509183422 28 200 0.0 0.0 0.00 0.00 0.00 66 1009.9
20260509182920 28 205 0.0 0.0 0.00 0.00 0.00 65 1009.8
20260509182416 28 190 0.0 0.0 0.00 0.00 0.00 65 1009.7
20260509181914 28 199 0.0 0.0 0.00 0.00 0.00 66 1010.3
20260509181411 28 172 0.0 0.0 0.00 0.00 0.00 66 1010.2
20260509180908 28 202 0.0 0.0 0.00 0.00 0.00 67 1010.3
20260509180403 28 170 0.0 0.0 0.00 0.00 0.00 67 1010.1
20260509175901 28 169 0.0 0.0 0.00 0.00 0.00 68 1010.3
20260509175357 28 184 1.6 1.6 0.00 0.00 0.00 66 1010.5
20260509174853 28 203 0.0 0.0 0.00 0.00 0.00 69 1010.5
20260509174344 27 183 0.0 0.0 0.00 0.00 0.00 70 1010.6
20260509173840 27 204 0.0 0.0 0.00 0.00 0.00 70 1010.7
20260509173335 27 211 0.0 0.0 0.00 0.00 0.00 69 1010.5
20260509172832 27 183 0.0 0.0 0.00 0.00 0.00 70 1010.7
20260509172329 27 204 0.0 0.0 0.00 0.00 0.00 70 1010.6
20260509171825 27 188 0.0 0.0 0.00 0.00 0.00 72 1010.6
20260509171320 27 215 0.0 0.0 0.00 0.00 0.00 70 1010.7
20260509170817 27 192 0.0 0.0 0.00 0.00 0.00 70 1010.8
20260509170313 27 129 1.6 3.2 0.00 0.00 0.00 71 1010.9
20260509165813 27 179 0.0 0.0 0.00 0.00 0.00 72 1010.6
20260509165307 27 191 0.0 0.0 0.00 0.00 0.00 72 1010.8
20260509164803 27 170 0.0 0.0 0.00 0.00 0.00 71 1010.9
20260509164259 27 185 0.0 0.0 0.00 0.00 0.00 71 1011.1
20260509163756 27 183 0.0 0.0 0.00 0.00 0.00 73 1011.0
20260509163252 27 176 0.0 0.0 0.00 0.00 0.00 73 1010.8
20260509162751 27 186 0.0 0.0 0.00 0.00 0.00 76 1010.8
20260509162245 26 196 1.6 1.6 0.00 0.00 0.00 74 1010.8
20260509161742 26 184 0.0 1.6 0.00 0.00 0.00 72 1010.8
20260509161237 26 183 0.0 0.0 0.00 0.00 0.00 73 1010.9
20260509160732 26 183 0.0 0.0 0.00 0.00 0.00 75 1010.8
20260509160229 26 189 0.0 0.0 0.00 0.00 0.00 74 1010.9
20260509155724 26 189 0.0 0.0 0.00 0.00 0.00 72 1010.9
20260509155221 26 169 0.0 1.6 0.00 0.00 0.00 73 1010.8
20260509154718 26 185 1.6 1.6 0.00 0.00 0.00 75 1010.7
20260509154214 26 164 0.0 0.0 0.00 0.00 0.00 75 1010.7
20260509153711 26 141 1.6 1.6 0.00 0.00 0.00 74 1010.7
20260509153208 25 168 0.0 0.0 0.00 0.00 0.00 75 1010.7
20260509152704 25 169 0.0 0.0 0.00 0.00 0.00 77 1010.5
20260509152200 25 156 0.0 1.6 0.00 0.00 0.00 78 1010.6
20260509151657 25 169 0.0 0.0 0.00 0.00 0.00 77 1010.6
20260509151154 25 176 0.0 0.0 0.00 0.00 0.00 79 1010.5
20260509150652 25 186 0.0 0.0 0.00 0.00 0.00 78 1010.6
20260509150150 25 192 0.0 0.0 0.00 0.00 0.00 80 1010.6
20260509145646 24 175 0.0 0.0 0.00 0.00 0.00 80 1010.8
20260509145141 24 193 0.0 0.0 0.00 0.00 0.00 82 1010.8
20260509144638 24 183 0.0 0.0 0.00 0.00 0.00 81 1010.9
20260509144136 24 188 0.0 0.0 0.00 0.00 0.00 82 1010.9
20260509143633 23 82 0.0 0.0 0.00 0.00 0.00 84 1010.8
20260509143130 23 175 0.0 0.0 0.00 0.00 0.00 83 1010.8
20260509142625 23 172 0.0 0.0 0.00 0.00 0.00 83 1010.9
20260509142122 23 184 0.0 0.0 0.00 0.00 0.00 84 1010.6
20260509141618 23 189 0.0 0.0 0.00 0.00 0.00 85 1010.7
20260509141115 23 199 0.0 0.0 0.00 0.00 0.00 86 1010.6
20260509140612 22 187 0.0 0.0 0.00 0.00 0.00 87 1010.7
20260509140110 22 168 0.0 0.0 0.00 0.00 0.00 87 1010.6
20260509135607 22 185 0.0 0.0 0.00 0.00 0.00 89 1010.6
20260509135105 22 183 0.0 0.0 0.00 0.00 0.00 90 1010.9
20260509134601 22 178 0.0 0.0 0.00 0.00 0.00 90 1010.5
20260509134059 21 165 0.0 0.0 0.00 0.00 0.00 90 1010.4
20260509133555 21 184 0.0 0.0 0.00 0.00 0.00 91 1010.4
20260509133053 21 161 0.0 0.0 0.00 0.00 0.00 91 1010.5
20260509132551 21 179 0.0 0.0 0.00 0.00 0.00 92 1010.5
20260509132049 21 183 0.0 0.0 0.00 0.00 0.00 93 1010.3